Location: Newark
(43.0000°N, 1.6781°W)
Time: 18:29:12
(UTC+00:00)

SO-50 - Pass Details

Date: 06 December 2022
Orbit: 584 x 695 km, 64.6° (Epoch: 05 February)

Event Time Altitude Azimuth Distance (km) Brightness Sun altitude
Rises 04:31:43 0° 171° (S) 2,978 ? -30.5°
Reaches altitude 10° 04:34:35 10° 153° (SSE) 2,091 ? -30.0°
Maximum altitude 04:37:51 19° 110° (ESE) 1,614 ? -29.4°
Drops below altitude 10° 04:41:11 10° 66° (ENE) 2,138 ? -28.8°
Sets 04:44:08 0° 49° (NE) 3,071 ? -28.3°
